OBJECT A, 69538

Orbit data source: Space-Track

You're viewing an Uncataloged Satellite

Recently launched and/or uncataloged satellites may have evolving metadata. Metadata may include but not limited to: Owner, Maufacturer, Bus, Motor, and Mission.

OBJECT A, 69538 is a Chinese satellite in SSO that was launched on Mon, 15 Jun 2026 UTC via a LIJIAN-1 launch vehicle from the Jiuquan Satellite Launch Center, China (JSC). Unknown objects in Earth's orbit typically refer to objects detected orbiting the Earth but have not yet been identified or cataloged. These objects could be anything from previously untracked satellites, spent rocket stages, debris from satellite collisions, or even natural meteoroids temporarily captured by Earth's gravity.

Loading next visibility...
Identifier
69538, 2026-134A
Orbit
SSO
Country
Flag of CNCN / PRC
Related business
None
Manufacturer
Unknown
Mission
Operational spacecraft
Bus & Motor
Unknown
Mass
Unknown
Launch date (UTC)
2026-06-15 (1 day ago)
Launch vehicle
LIJIAN-1
Launch site
Jiuquan Satellite Launch Center, China (JSC)
Object type
Unknown
Shape & HBR
Unknown
Radar Cross Section
RCS unknown

Expand to show TLE details & history
Last TLE update: 1 day ago

TLE from 1 day ago
0 OBJECT A
1 69538U 26134A   26166.46464241  .00000733  00000-0  50207-4 0  9990
2 69538  97.7021 236.5591 0014098 278.2998  81.6631 15.09188774    57
Epoch: 2026-06-15T11:09Z
TLE epoch observation values (Epoch: 2026-06-15T11:09:05.104Z)
Latitude
-0.00008°
Longitude
165.5372°
Altitude
540.344 km
Speed
7.593 km/s
True Right ascension
15h 46m 14s
True Declination
0° 00' 00"
Sunlit
Object was in full shadow at epoch
Visualization orbit readout
Latitude
Unknown
Longitude
Unknown
Altitude
Unknown
Speed
Unknown
Apparent Right ascension
Unknown
Apparent Declination
Unknown
Sunlit
N/A
Visualization observer readout
Local Sidereal Time
05:01:00
Azimuth
Unknown
Elevation
Unknown
Doppler factor
Unknown
Orbital elements
Apogee altitude
545.418 km
Perigee altitude
525.924 km
Semi-major axis
6,913.808 km
Eccentricity
0.00141
Inclination
97.7021°
RAAN
236.5591°
Arg. of periapsis
278.2998°
True anomaly
81.82298°
Mean anomaly
81.6631°
Eccentric anomaly
81.74304°
Mean motion
3.77544 °/min
Orbital period
95.35 mins
BSTAR
0.000050207
Loading maneuver chart data...
Computing Atmospheric mass density...
Loading historical data...
Loading historical data...
Loading historical data...
Loading historical data...
Loading historical data...
Loading historical data...
Loading historical data...

Documentation

Showing up to 5 results
|